Location: ???? ???? ?????
(31.2680°N, 31.7283°E)
Time: 19:57:08
(UTC+00:00)

Cosmos 2333 Rocket - Pass Details

Date: 13 July 2020
Orbit: 837 x 864 km, 70.8° (Epoch: 05 August)

Event Time Altitude Azimuth Distance (km) Brightness Sun altitude
Rises 17:14:06 0° 193° (SSW) 3,383 5.2 -3.7°
Reaches altitude 10° 17:16:32 10° 191° (S) 2,455 4.4 -4.1°
Maximum altitude 17:22:08 71° 108° (ESE) 896 2.2 -5.2°
Drops below altitude 10° 17:27:49 10° 25° (NNE) 2,486 4.7 -6.2°
Sets 17:30:17 0° 23° (NNE) 3,429 5.5 -6.7°
